This is the latest recevied weather packets stored in our database for station/object KN6ZYR. If no packets are shown the sender has not sent any weather packets the latest 1 day(s).
| Time | Temp. | Humidity | Pressure | Rain* | Wind** | Luminosity | Snow |
|---|---|---|---|---|---|---|---|
| 1778043228 | 12.78° C | 65% | 1019.5 hPa | 0 mm | - | 0 W/m² | - |
| 1778042925 | 12.22° C | 65% | 1019.5 hPa | 0 mm | - | 0 W/m² | - |
| 1778042623 | 11.67° C | 67% | 1019.2 hPa | 0 mm | - | 0 W/m² | - |
| 1778042017 | 12.22° C | 68% | 1019 hPa | 0 mm | - | 0 W/m² | - |
| 1778041715 | 12.78° C | 67% | 1019 hPa | 0 mm | - | 0 W/m² | - |
| 1778041414 | 12.78° C | 67% | 1019 hPa | 0 mm | - | 0 W/m² | - |
| 1778040809 | 12.78° C | 64% | 1018.8 hPa | 0 mm | - | 0 W/m² | - |
| 1778040506 | 12.78° C | 63% | 1018.8 hPa | 0 mm | - | 0 W/m² | - |
| 1778040203 | 12.78° C | 66% | 1018.7 hPa | 0 mm | - | 0 W/m² | - |
| 1778039597 | 12.78° C | 65% | 1018.4 hPa | 0 mm | - | 0 W/m² | - |
| 1778039294 | 13.33° C | 64% | 1018.4 hPa | 0 mm | - | 0 W/m² | - |
| 1778038688 | 13.33° C | 61% | 1018 hPa | 0 mm | - | 0 W/m² | - |
| 1778038385 | 13.33° C | 62% | 1018 hPa | 0 mm | - | 0 W/m² | - |
| 1778038082 | 13.89° C | 62% | 1018 hPa | 0 mm | - | 0 W/m² | - |
| 1778037779 | 13.89° C | 60% | 1017.9 hPa | 0 mm | - | 0 W/m² | - |
| 1778037475 | 13.89° C | 59% | 1018 hPa | 0 mm | - | 0 W/m² | - |
| 1778037173 | 13.89° C | 57% | 1017.6 hPa | 0 mm | - | 0 W/m² | - |
| 1778036871 | 14.44° C | 55% | 1017.6 hPa | 0 mm | - | 0 W/m² | - |
| 1778036265 | 15° C | 53% | 1017.2 hPa | 0 mm | - | 1 W/m² | - |
| 1778035961 | 15° C | 53% | 1017.3 hPa | 0 mm | - | 2 W/m² | - |
| 1778035355 | 15.56° C | 50% | 1017.2 hPa | 0 mm | - | 6 W/m² | - |
| 1778035051 | 15.56° C | 50% | 1017.1 hPa | 0 mm | - | 9 W/m² | - |
| 1778034748 | 15.56° C | 49% | 1016.8 hPa | 0 mm | - | 11 W/m² | - |
| 1778034445 | 15.56° C | 49% | 1016.7 hPa | 0 mm | - | 12 W/m² | - |
| 1778034143 | 16.11° C | 48% | 1017 hPa | 0 mm | - | 15 W/m² | - |
* Rain latest hour (hover to see other rain measurements)
** Current wind speed in m/s (hover to see current wind gust speed)